Location: Newark
(44.3333°N, 7.6167°E)
Time: 01:12:18
(UTC+00:00)

N. Korean satellite - Visible Passes

Search period start: 14 November 2019 00:00
Search period end: 24 November 2019 00:00
Orbit: 456 x 506 km, 97.2° (Epoch: 12 November)

Date Brightness Start Highest point End Pass type
(mag) Time Alt. Az. Time Alt. Az. Time Alt. Az.
14 Nov 7.6 05:09:21 10° NNE 05:13:00 51° E 05:16:36 10° S visible
14 Nov 9.3 17:20:04 10° SSW 17:22:59 23° W 17:25:55 10° NW visible
15 Nov 9.1 04:44:23 10° NE 04:47:31 25° E 04:50:38 10° SSE visible
15 Nov 7.8 16:54:00 10° S 16:57:29 46° W 17:01:02 10° NNW visible
16 Nov 10.1 04:20:09 10° ENE 04:21:57 13° E 04:23:45 10° ESE visible
16 Nov 6.9 05:52:01 10° N 05:55:35 45° WNW 05:59:07 10° SW visible
16 Nov 6.6 16:28:27 10° SSE 16:32:04 82° ENE 16:35:46 10° N visible
17 Nov 6.7 05:26:32 10° NNE 05:30:16 86° ESE 05:33:57 10° SSW visible
17 Nov 10.0 17:38:15 10° SW 17:40:20 15° W 17:42:28 10° NW visible
18 Nov 8.1 05:01:19 10° NNE 05:04:50 40° E 05:08:19 10° S visible
18 Nov 8.9 17:11:36 10° SSW 17:14:46 28° W 17:18:00 10° NW visible
19 Nov 9.5 04:36:30 10° NE 04:39:19 20° E 04:42:07 10° SE visible
19 Nov 7.3 16:45:43 10° S 16:49:17 59° W 16:52:57 10° NNW visible
20 Nov 10.3 04:13:02 10° ENE 04:13:42 10° E 04:14:22 10° E visible
20 Nov 6.7 05:43:48 10° N 05:47:27 56° WNW 05:51:02 10° SSW visible
21 Nov 7.0 05:18:23 10° NNE 05:22:06 68° ESE 05:25:43 10° S visible
21 Nov 9.7 17:29:30 10° SW 17:32:05 18° W 17:34:42 10° NW visible
22 Nov 8.6 04:53:16 10° NNE 04:56:37 32° E 04:59:55 10° SSE visible
22 Nov 8.4 17:03:09 10° SSW 17:06:32 35° W 17:09:58 10° NNW visible
23 Nov 9.8 04:28:38 10° NE 04:31:03 16° E 04:33:26 10° SE visible
23 Nov 7.2 06:01:12 10° N 06:04:34 34° WNW 06:07:53 10° SW visible
23 Nov 6.9 16:37:25 10° S 16:41:04 76° WSW 16:44:48 10° NNW visible
